Das Wetter in  D-61279 Heinzenberg / Taunus





Wetter Minimum- & Maximum-Werte im November 2016

Standort: Heinzenberg / Taunus - Höhe 297 m         8° 24' 1" Ost 50° 21' 51" Nord
(   3-stündige Aktualisierung    letzte Aktualisierung um 20:46 am 30.11.2016  )


Messgrösse

Minimum

Maximum

Durchschnitt

Temperatur West /
Luftfeuchte West
Anklicken für Monats-Diagramm

-8,9 °C

07:15
30.11.2016

47 %

14:45
30.11.2016

15,1 °C

14:13
23.11.2016

93 %

08:34
10.11.2016

Temp

4,2 °C

Feuchte

82 %

Temperatur Ost /
Luftfeuchte Ost
Anklicken für Monats-Diagramm

-8,8 °C

06:55
30.11.2016

--

--
--

14,6 °C

14:23
23.11.2016

--

--
--

4,4 °C

--

Luftdruck Anklicken für Monats-Diagramm

996,0 hPa

07:38
18.11.2016

1036,9 hPa

09:14
29.11.2016

1016,0 hPa

Taupunkt

-11,4 °C

07:15
30.11.2016

9,5 °C

13:43
23.11.2016

1,3 °C

Windchill
( gefühlte Temperatur )

-11,4 °C

03:49
10.11.2016

15,1 °C

14:13
23.11.2016

2,2 °C

Windgeschwindigkeit /
Windrichtung
Anklicken für Monats-Diagramm

---

52,8 km/h / SW

09:50
20.11.2016

6,7 km/h
W-SW

Helligkeit /
Sonnenschein
Anklicken für Monats-Diagramm
Anklicken für Monats-Diagramm

Sonnenschein:

66:10 Stunden

Max: 7:35 Std am
01.11.2016

72 klux

12:56
06.11.2016

13,3 klux

Solarstrahlung Anklicken für Monats-Diagramm

---

493 W/m²

12:56
06.11.2016

102 W/m²

Regenmenge
    November 2016
Anklicken für Monats-Diagramm

Insgesamt 55,8 l/m²

in 104:54 Stunden
an 16 Tagen

8,7 l/m²

11:40
05.11.2016

Gesamtmenge

55,8 l/m²

Regen-Tage
    November 2016
Anklicken für Monats-Diagramm

>   0 mm/Tag

>   2 mm/Tag

>   5 mm/Tag

> 10 mm/Tag

> 20 mm/Tag

16 Tage     
9 Tage     
5 Tage     
0 Tage     
0 Tage     

Eisige Tage November 2016 / 2015

Tmin ≤ -10°C     

0 Tage

/

0 Tage

Eistage November 2016 / 2015

Tmax <     0°C     

0 Tage

/

0 Tage

Frosttage November 2016 / 2015

Tmin ≤     0°C     

10 Tage

/

10 Tage

Kalte Tage November 2016 / 2015

Tmax <   10°C     

20 Tage

/

10 Tage

Warme Tage November 2016 / 2015

Tmax ≥   20°C     

0 Tage

/

0 Tage

Sommertage November 2016 / 2015

Tmax ≥   25°C     

0 Tage

/

0 Tage

Heisse Tage November 2016 / 2015

Tmax ≥   30°C     

0 Tage

/

0 Tage


Monatsdiagramm November 2016

Die Kurven zeigen den Durchschnittswert des jeweiligen Tages an


Wetter-Monatsübersicht November 2016
Datum
  Temperatur
   Luftdruck
   Wind
  Regen
   Luftfeuchte
   Helligkeit

Sonnen-
schein

Ø
Temp.

Min.
Temp.

Max.
Temp.

Ø
Luftdruck

Min.
Luftdruck

Max.
Luftdruck

Ø-Geschw.
Haupt-Richtg.

Max.
Wind

Menge /
Dauer

Ø
Feuchte

Min.
Feuchte

Max.
Feuchte

Ø
Helligkeit

Max.
Helligkeit

1.
November
6,4 °C0,7 °C
07:11
14,2 °C
14:46
1021,1 hPa1016,9 hPa
23:57
1027,1 hPa
00:51
2,0 km/h
NW
15,3 km/h
13:56  
---
83 %65 %
14:31
91 %
10:46
28,7 klux60,9 klux
11:51
7:35 Std 
2.
November
6,1 °C4,6 °C
20:17
9,6 °C
00:02
1018,6 hPa1016,9 hPa
00:02
1020,6 hPa
23:33
10,2 km/h
W
34,7 km/h
13:57  
1,5 l/m²
5:30 Stunden
87 %83 %
03:12
89 %
11:42
10,0 klux67,9 klux
11:37
40 Min 
3.
November
4,8 °C1,2 °C
23:38
9,8 °C
15:03
1021,7 hPa1020,6 hPa
00:03
1023,0 hPa
08:13
2,9 km/h
W-NW
17,5 km/h
11:33  
---
10 Minuten
85 %71 %
14:58
91 %
08:53
15,5 klux47,6 klux
09:58
2:25 Std 
4.
November
3,5 °C-0,5 °C
03:53
8,7 °C
14:49
1014,7 hPa1007,1 hPa
23:50
1021,2 hPa
01:03
1,9 km/h
W-SW
16,6 km/h
23:35  
0,8 l/m²
2:51 Stunden
85 %71 %
15:14
91 %
09:29
11,8 klux39,7 klux
12:59
35 Min 
5.
November
5,8 °C3,1 °C
23:56
7,0 °C
10:25
1002,2 hPa999,6 hPa
12:45
1007,1 hPa
00:00
3,9 km/h
W-SW
15,2 km/h
07:05  
8,7 l/m²
8:55 Stunden
89 %85 %
07:10
91 %
14:05
4,8 klux12,7 klux
14:35
--- 
6.
November
4,0 °C2,5 °C
05:16
8,6 °C
13:56
1001,3 hPa999,5 hPa
13:51
1003,2 hPa
23:47
11,0 km/h
W-SW
26,6 km/h
11:31  
---
84 %68 %
14:06
91 %
00:01
14,6 klux72,1 klux
12:56
1:15 Std 
7.
November
2,9 °C2,0 °C
23:28
3,9 °C
14:52
1006,4 hPa1003,2 hPa
00:02
1008,6 hPa
23:28
8,3 km/h
W-SW
22,0 km/h
13:12  
2,9 l/m²
13:36 Stunden
87 %81 %
00:02
90 %
22:17
7,7 klux19,7 klux
13:02
--- 
8.
November
1,0 °C-2,1 °C
20:58
4,9 °C
14:38
1009,2 hPa1007,5 hPa
02:28
1011,2 hPa
20:58
6,4 km/h
W
22,8 km/h
14:53  
4,7 l/m²
8:30 Stunden
89 %79 %
14:48
92 %
07:18
12,2 klux64,0 klux
13:18
1:45 Std 
9.
November
1,7 °C-1,8 °C
00:28
3,5 °C
13:43
1004,1 hPa999,2 hPa
20:58
1010,1 hPa
00:28
7,8 km/h
O-SO
28,3 km/h
20:28  
5,6 l/m²
11:18 Stunden
88 %86 %
14:28
90 %
01:03
6,2 klux16,9 klux
13:28
--- 
10.
November
2,8 °C0,2 °C
05:09
5,6 °C
15:04
1005,8 hPa999,2 hPa
00:04
1007,6 hPa
09:09
9,1 km/h
W-SW
26,8 km/h
01:19  
3,0 l/m²
8:35 Stunden
91 %88 %
20:34
93 %
08:34
7,0 klux20,3 klux
11:44
--- 
11.
November
2,7 °C0,7 °C
23:30
3,9 °C
14:29
1015,3 hPa1006,4 hPa
02:49
1025,3 hPa
23:30
1,3 km/h
NO
14,8 km/h
12:44  
7,6 l/m²
9:25 Stunden
91 %86 %
22:45
92 %
04:09
2,9 klux8,4 klux
13:39
--- 
12.
November
0,5 °C-1,9 °C
19:40
5,8 °C
13:55
1025,2 hPa1023,6 hPa
13:55
1026,5 hPa
08:20
2,2 km/h
O-SO
17,0 km/h
11:55  
---
79 %59 %
13:50
87 %
00:00
20,43 klux61,60 klux
11:20
3:35 Std 
13.
November
0,3 °C-3,2 °C
23:41
3,4 °C
14:41
1027,0 hPa1024,5 hPa
05:01
1032,1 hPa
23:41
4,6 km/h
O-SO
21,3 km/h
11:51  
---
78 %74 %
13:31
83 %
00:01
12,8 klux33,2 klux
11:51
40 Min 
14.
November
-1,4 °C-6,6 °C
07:46
6,7 °C
14:46
1033,4 hPa1031,5 hPa
23:42
1035,7 hPa
07:46
2,7 km/h
O-SO
19,4 km/h
12:01  
---
76 %52 %
14:21
88 %
10:21
29,2 klux51,7 klux
11:21
7:30 Std 
15.
November
2,6 °C0,6 °C
06:37
6,2 °C
23:47
1027,7 hPa1024,6 hPa
23:47
1031,5 hPa
00:02
6,0 km/h
W-SW
23,3 km/h
15:32  
5,0 l/m²
9:39 Stunden
85 %72 %
02:42
91 %
17:37
4,8 klux17,3 klux
12:42
--- 
16.
November
8,4 °C6,2 °C
00:02
10,1 °C
20:22
1018,1 hPa1013,9 hPa
22:53
1024,6 hPa
00:12
11,7 km/h
W-SW
35,4 km/h
10:37  
8,5 l/m²
14:00 Stunden
92 %87 %
23:03
93 %
09:12
5,1 klux19,0 klux
10:42
--- 
17.
November
9,3 °C8,1 °C
02:33
10,4 °C
12:03
1007,9 hPa1002,3 hPa
23:03
1014,0 hPa
00:38
21,2 km/h
W-SW
52,0 km/h
14:03  
1,8 l/m²
5:15 Stunden
86 %79 %
14:43
90 %
06:23
6,9 klux18,6 klux
11:43
--- 
18.
November
8,3 °C3,6 °C
22:39
11,2 °C
07:38
1001,3 hPa996,0 hPa
07:38
1008,2 hPa
23:54
18,7 km/h
W-SW
41,6 km/h
14:23  
4,9 l/m²
4:10 Stunden
80 %73 %
17:23
89 %
09:18
7,9 klux39,1 klux
15:08
50 Min 
19.
November
5,2 °C4,1 °C
01:29
9,1 °C
14:24
1008,3 hPa1006,1 hPa
07:49
1010,4 hPa
20:34
13,8 km/h
W-SW
34,8 km/h
13:44  
0,8 l/m²
2:05 Stunden
79 %63 %
14:29
87 %
09:04
11,8 klux53,3 klux
13:39
1:40 Std 
20.
November
8,7 °C3,0 °C
04:25
13,6 °C
21:55
1002,6 hPa998,1 hPa
12:40
1009,3 hPa
00:05
20,9 km/h
SW
52,8 km/h
09:50  
---
70 %57 %
11:10
82 %
04:40
16,6 klux63,4 klux
11:15
2:45 Std 
21.
November
11,4 °C8,8 °C
23:42
13,8 °C
20:46
1003,6 hPa1002,3 hPa
12:56
1004,6 hPa
23:42
9,9 km/h
O-SO
34,5 km/h
00:41  
---
50 Minuten
63 %52 %
03:31
75 %
23:57
5,4 klux13,4 klux
13:01
--- 
22.
November
10,0 °C7,6 °C
23:48
14,0 °C
15:07
1010,8 hPa1004,6 hPa
00:02
1016,1 hPa
22:43
3,7 km/h
W-SW
19,8 km/h
07:42  
---
5 Minuten
76 %65 %
15:22
84 %
22:53
10,8 klux28,6 klux
13:32
50 Min 
23.
November
8,1 °C4,1 °C
08:13
15,1 °C
14:13
1017,2 hPa1015,0 hPa
01:43
1018,7 hPa
08:13
0,4 km/h
SO
11,8 km/h
01:33  
---
83 %66 %
14:03
90 %
09:58
17,3 klux51,7 klux
12:53
3:30 Std 
24.
November
8,7 °C6,6 °C
20:44
13,0 °C
14:09
1018,7 hPa1017,0 hPa
05:28
1020,4 hPa
20:44
4,5 km/h
NO
25,3 km/h
11:54  
---
81 %71 %
14:09
86 %
01:38
20,0 klux42,7 klux
12:49
5:10 Std 
25.
November
6,1 °C4,3 °C
23:56
10,5 °C
14:35
1019,8 hPa1018,5 hPa
04:35
1020,7 hPa
23:56
5,2 km/h
NO
20,8 km/h
05:25  
---
78 %63 %
14:35
85 %
00:00
14,0 klux42,9 klux
13:20
2:35 Std 
26.
November
4,7 °C3,8 °C
08:01
6,0 °C
14:16
1019,0 hPa1017,4 hPa
14:16
1020,8 hPa
02:46
0,4 km/h
NW
8,0 km/h
02:26  
---
82 %79 %
00:01
84 %
22:11
6,8 klux13,1 klux
11:01
--- 
27.
November
3,4 °C-1,8 °C
23:43
7,3 °C
15:22
1019,9 hPa1017,7 hPa
06:22
1024,6 hPa
23:43
3,7 km/h
NW
27,8 km/h
11:52  
---
84 %74 %
16:07
89 %
04:57
10,9 klux46,1 klux
13:02
1:25 Std 
28.
November
-1,6 °C-5,7 °C
23:54
5,3 °C
14:38
1029,3 hPa1024,5 hPa
01:18
1034,5 hPa
23:54
2,4 km/h
O-NO
23,3 km/h
12:18  
---
80 %60 %
14:33
89 %
10:28
27,1 klux52,2 klux
12:03
7:05 Std 
29.
November
-4,4 °C-8,7 °C
08:19
4,7 °C
14:59
1035,3 hPa1034,1 hPa
14:59
1036,9 hPa
09:14
1,3 km/h
SO
17,8 km/h
14:19  
---
76 %53 %
14:44
86 %
10:34
26,5 klux47,5 klux
12:19
7:20 Std 
30.
November
-3,2 °C-8,9 °C
07:15
4,8 °C
15:05
1033,5 hPa1030,4 hPa
22:46
1036,0 hPa
08:30
3,9 km/h
W
18,9 km/h
14:45  
---
70 %47 %
14:45
85 %
11:00
23,9 klux44,5 klux
13:15
7:00 Std 



November
2016

Temperatur

  

Luftdruck

  

Wind

  

Regen

  

Luftfeuchte

  

Helligkeit

Sonnen-
schein

Ø

Min

Max

Ø

Min

Max

Ø

Max

Max

Ø

Min

Max

Ø

Max

Max

4,2 °C

-8,9 °C

07:15 Uhr
30.11.2016

15,1 °C

14:13 Uhr
23.11.2016

1016,0 hPa

996,0 hPa

07:38 Uhr
18.11.2016

1036,9 hPa

09:14 Uhr
29.11.2016

6,7 km/h

W-SW

52,8 km/h

09:50 Uhr
20.11.2016

8,7 l/m²

8:55 Stunden
05.11.2016

82 %

47 %

14:45 Uhr
30.11.2016

93 %

08:34 Uhr
10.11.2016

13,3 klux

72,1 klux

12:56 Uhr
06.11.2016

7:35 Std

am
01.11.2016

Gesamt

Gesamt

55,8 l/m²

16 Tage
104:54 h

66:10 Std


Wetter-Diagramme November 2016     Heinzenberg / Taunus   
TemperaturLuftfeuchte
SolarstrahlungLuftdruck
HelligkeitSonnenschein
RegenmengeRegendauer
Wind-GeschwindigkeitWind-Richtung